Location: Invercargill
(46.4000°S, 168.3500°E)
Time: 23:46:54
(UTC+13:00)

Cosmos 968 Rocket - Pass Details

Date: 24 January 2019
Orbit: 740 x 771 km, 74.0° (Epoch: 17 October)

Event Time Altitude Azimuth Distance (km) Brightness Sun altitude
Exits shadow 23:03:47 20° 43° (NE) 1,725 4.7 -13.4°
Maximum altitude 23:06:02 27° 81° (E) 1,456 4.5 -13.7°
Drops below altitude 10° 23:10:24 10° 137° (SE) 2,331 6.1 -14.2°
Sets 23:13:07 0° 148° (SSE) 3,270 7.0 -14.5°
